Location: Rock Island IL
(41.5000°N, 90.5500°W)
Time: 22:52:05
(UTC-05:00)

ISS - Visible Passes

Search period start: 22 September 2017 00:00
Search period end: 02 October 2017 00:00
Orbit: 401 x 407 km, 51.6° (Epoch: 23 September)

Date Brightness Start Highest point End Pass type
(mag) Time Alt. Az. Time Alt. Az. Time Alt. Az.
23 Sep -1.4 20:35:41 10° SSW 20:36:17 14° SSW 20:36:17 14° SSW visible
24 Sep -2.0 19:44:22 10° S 19:46:24 16° SE 19:47:02 15° ESE visible
24 Sep -0.8 21:19:19 10° WSW 21:19:45 13° WSW 21:19:45 13° WSW visible
25 Sep -4.0 20:26:56 10° SW 20:30:12 72° SE 20:30:15 72° SE visible
26 Sep -3.1 19:34:53 10° SSW 19:37:55 36° SE 19:40:32 13° ENE visible
26 Sep -1.4 21:11:27 10° W 21:13:13 24° WNW 21:13:13 24° WNW visible
27 Sep -3.0 20:18:44 10° WSW 20:21:56 49° NNW 20:23:18 28° NNE visible
28 Sep -3.8 19:26:15 10° SW 19:29:31 90° ESE 19:32:48 10° NE visible
28 Sep -1.3 21:03:49 10° WNW 21:05:55 20° NNW 21:05:55 20° NNW visible
29 Sep -2.0 20:10:54 10° W 20:13:45 27° NNW 20:15:43 16° NNE visible
30 Sep -2.7 19:18:05 10° WSW 19:21:12 41° NNW 19:24:20 10° NE visible
30 Sep -1.1 20:56:15 10° NW 20:58:05 15° NNW 20:58:05 15° NNW visible
01 Oct -1.5 20:03:14 10° WNW 20:05:38 19° NNW 20:07:43 12° NNE visible
